Location: Innsbruck
(47.2657°N, 11.3914°E)
Time: 10:36:15
(UTC+01:00)

XW-2F - Pass Details

Date: 15 December 2021
Orbit: 495 x 515 km, 97.5° (Epoch: 15 January)

Event Time Altitude Azimuth Distance (km) Brightness Sun altitude
Rises 18:38:43 0° 208° (SSW) 2,617 ? -21.7°
Reaches altitude 10° 18:41:29 10° 231° (SW) 1,740 ? -22.1°
Maximum altitude 18:43:49 16° 269° (W) 1,424 ? -22.5°
Drops below altitude 10° 18:46:09 10° 307° (NW) 1,753 ? -22.9°
Sets 18:48:58 0° 331° (NNW) 2,648 ? -23.4°
